Time,TemperatureF,DewpointF,PressureIn,WindDirection,WindDirectionDegrees,WindSpeedMPH,WindSpeedGustMPH,Humidity,HourlyPrecipIn,Conditions,Clouds,dailyrainin,SolarRadiationWatts/m^2,SoftwareType,DateUTC
2013-07-02 00:00:00,67.3,48.0,29.91,North,0,5.0,6.0,50,0.00,,---,0.00,0.00,VWS V14.01,2013-07-02 05:00:00,
2013-07-02 00:03:00,67.3,48.0,29.91,NNW,344,5.0,6.0,50,0.00,,---,0.00,0.00,VWS V14.01,2013-07-02 05:03:00,
2013-07-02 00:05:00,67.1,48.4,29.91,NW,305,5.0,6.0,51,0.00,,---,0.00,0.00,VWS V14.01,2013-07-02 05:05:00,
2013-07-02 00:08:00,66.9,48.2,29.91,WNW,301,5.0,5.0,51,0.00,,---,0.00,0.00,VWS V14.01,2013-07-02 05:08:00,
2013-07-02 00:10:00,66.9,48.2,29.91,WNW,295,3.0,5.0,51,0.00,,---,0.00,0.00,VWS V14.01,2013-07-02 05:10:00,
2013-07-02 00:13:00,66.9,48.2,29.91,WNW,289,3.0,5.0,51,0.00,,---,0.00,0.00,VWS V14.01,2013-07-02 05:13:00,
2013-07-02 00:15:00,66.8,48.6,29.91,WNW,287,3.0,5.0,52,0.00,,---,0.00,0.00,VWS V14.01,2013-07-02 05:15:00,
2013-07-02 00:18:00,66.6,49.0,29.91,WNW,285,5.0,5.0,53,0.00,,---,0.00,0.00,VWS V14.01,2013-07-02 05:18:00,
2013-07-02 00:20:00,66.4,48.8,29.91,WNW,287,4.0,5.0,53,0.00,,---,0.00,0.00,VWS V14.01,2013-07-02 05:20:00,
2013-07-02 00:23:00,66.0,49.9,29.91,WNW,287,5.0,5.0,56,0.00,,---,0.00,0.00,VWS V14.01,2013-07-02 05:23:00,
2013-07-02 00:25:00,65.6,49.5,29.91,WNW,287,5.0,5.0,56,0.00,,---,0.00,0.00,VWS V14.01,2013-07-02 05:25:00,
2013-07-02 00:28:00,65.3,49.2,29.91,WNW,287,3.0,5.0,56,0.00,,---,0.00,0.00,VWS V14.01,2013-07-02 05:28:00,
2013-07-02 00:30:00,65.0,49.4,29.91,WNW,287,4.0,5.0,57,0.00,,---,0.00,0.00,VWS V14.01,2013-07-02 05:30:00,
2013-07-02 00:34:00,64.7,49.1,29.91,WNW,288,3.0,5.0,57,0.00,,---,0.00,0.00,VWS V14.01,2013-07-02 05:34:00,
2013-07-02 00:35:00,64.7,49.1,29.91,WNW,291,3.0,5.0,57,0.00,,---,0.00,0.00,VWS V14.01,2013-07-02 05:35:00,
2013-07-02 00:39:00,64.5,49.0,29.91,WNW,285,3.0,5.0,57,0.00,,---,0.00,0.00,VWS V14.01,2013-07-02 05:39:00,
2013-07-02 00:40:00,64.5,49.0,29.91,WNW,285,3.0,5.0,57,0.00,,---,0.00,0.00,VWS V14.01,2013-07-02 05:40:00,
2013-07-02 00:44:00,64.3,49.2,29.91,West,281,3.0,4.0,58,0.00,,---,0.00,0.00,VWS V14.01,2013-07-02 05:44:00,
2013-07-02 00:45:00,64.2,49.1,29.91,West,278,3.0,4.0,58,0.00,,---,0.00,0.00,VWS V14.01,2013-07-02 05:45:00,
2013-07-02 00:49:00,63.9,48.8,29.91,West,275,5.0,5.0,58,0.00,,---,0.00,0.00,VWS V14.01,2013-07-02 05:49:00,
2013-07-02 00:50:00,63.7,49.1,29.91,West,274,3.0,5.0,59,0.00,,---,0.00,0.00,VWS V14.01,2013-07-02 05:50:00,
2013-07-02 00:54:00,63.4,48.8,29.91,West,275,3.0,5.0,59,0.00,,---,0.00,0.00,VWS V14.01,2013-07-02 05:54:00,
2013-07-02 00:55:00,63.2,48.7,29.91,West,274,4.0,5.0,59,0.00,,---,0.00,0.00,VWS V14.01,2013-07-02 05:55:00,
2013-07-02 00:59:00,62.9,48.8,29.91,West,274,5.0,5.0,60,0.00,,---,0.00,0.00,VWS V14.01,2013-07-02 05:59:00,
2013-07-02 01:00:00,62.9,48.8,29.91,West,275,4.0,5.0,60,0.00,,---,0.00,0.00,VWS V14.01,2013-07-02 06:00:00,
2013-07-02 01:04:00,62.6,49.0,29.91,West,275,4.0,5.0,61,0.00,,---,0.00,0.00,VWS V14.01,2013-07-02 06:04:00,
2013-07-02 01:05:00,62.6,49.0,29.91,West,274,4.0,5.0,61,0.00,,---,0.00,0.00,VWS V14.01,2013-07-02 06:05:00,
2013-07-02 01:09:00,62.4,49.2,29.91,West,274,5.0,5.0,62,0.00,,---,0.00,0.00,VWS V14.01,2013-07-02 06:09:00,
2013-07-02 01:10:00,62.3,49.1,29.91,West,274,4.0,5.0,62,0.00,,---,0.00,0.00,VWS V14.01,2013-07-02 06:10:00,
2013-07-02 01:14:00,62.0,48.8,29.91,West,275,4.0,5.0,62,0.00,,---,0.00,0.00,VWS V14.01,2013-07-02 06:14:00,
2013-07-02 01:15:00,62.0,49.3,29.91,West,274,5.0,5.0,63,0.00,,---,0.00,0.00,VWS V14.01,2013-07-02 06:15:00,
2013-07-02 01:19:00,61.6,48.9,29.91,West,274,4.0,5.0,63,0.00,,---,0.00,0.00,VWS V14.01,2013-07-02 06:19:00,
2013-07-02 01:20:00,61.6,48.9,29.91,West,275,5.0,5.0,63,0.00,,---,0.00,0.00,VWS V14.01,2013-07-02 06:20:00,
2013-07-02 01:24:00,61.5,48.8,29.91,West,274,4.0,5.0,63,0.00,,---,0.00,0.00,VWS V14.01,2013-07-02 06:24:00,
2013-07-02 01:25:00,61.5,48.8,29.91,West,274,5.0,5.0,63,0.00,,---,0.00,0.00,VWS V14.01,2013-07-02 06:25:00,
2013-07-02 01:29:00,61.5,49.2,29.90,West,274,4.0,5.0,64,0.00,,---,0.00,0.00,VWS V14.01,2013-07-02 06:29:00,
2013-07-02 01:30:00,61.5,49.2,29.90,West,274,4.0,5.0,64,0.00,,---,0.00,0.00,VWS V14.01,2013-07-02 06:30:00,
2013-07-02 01:35:00,61.5,49.6,29.90,West,274,3.0,5.0,65,0.00,,---,0.00,0.00,VWS V14.01,2013-07-02 06:35:00,
2013-07-02 01:40:00,61.3,49.5,29.90,West,274,3.0,5.0,65,0.00,,---,0.00,0.00,VWS V14.01,2013-07-02 06:40:00,
2013-07-02 01:45:00,61.2,49.3,29.90,West,274,5.0,5.0,65,0.00,,---,0.00,0.00,VWS V14.01,2013-07-02 06:45:00,
2013-07-02 01:50:00,61.2,49.3,29.90,West,274,5.0,5.0,65,0.00,,---,0.00,0.00,VWS V14.01,2013-07-02 06:50:00,
2013-07-02 01:55:00,60.9,49.1,29.90,West,274,4.0,6.0,65,0.00,,---,0.00,0.00,VWS V14.01,2013-07-02 06:55:00,
2013-07-02 02:00:00,60.7,48.9,29.90,West,272,5.0,6.0,65,0.00,,---,0.00,0.00,VWS V14.01,2013-07-02 07:00:00,
2013-07-02 02:05:00,60.7,49.3,29.90,West,271,5.0,6.0,66,0.00,,---,0.00,0.00,VWS V14.01,2013-07-02 07:05:00,
2013-07-02 02:10:00,60.4,48.6,29.90,West,270,5.0,6.0,65,0.00,,---,0.00,0.00,VWS V14.01,2013-07-02 07:10:00,
2013-07-02 02:15:00,60.2,48.8,29.90,West,264,6.0,6.0,66,0.00,,---,0.00,0.00,VWS V14.01,2013-07-02 07:15:00,
2013-07-02 02:20:00,59.9,48.9,29.90,SSW,199,5.0,6.0,67,0.00,,---,0.00,0.00,VWS V14.01,2013-07-02 07:20:00,
2013-07-02 02:25:00,59.8,48.8,29.90,West,265,5.0,6.0,67,0.00,,---,0.00,0.00,VWS V14.01,2013-07-02 07:25:00,
2013-07-02 02:30:00,59.6,49.0,29.90,West,264,5.0,6.0,68,0.00,,---,0.00,0.00,VWS V14.01,2013-07-02 07:30:00,
2013-07-02 02:35:00,59.3,49.1,29.90,NNW,342,3.0,6.0,69,0.00,,---,0.00,0.00,VWS V14.01,2013-07-02 07:35:00,
2013-07-02 02:40:00,59.2,49.0,29.90,NNW,340,3.0,6.0,69,0.00,,---,0.00,0.00,VWS V14.01,2013-07-02 07:40:00,
2013-07-02 02:41:00,59.2,49.0,29.90,NNW,336,3.0,5.0,69,0.00,,---,0.00,0.00,VWS V14.01,2013-07-02 07:41:00,
2013-07-02 02:45:00,59.0,49.2,29.90,NNW,347,4.0,6.0,70,0.00,,---,0.00,0.00,VWS V14.01,2013-07-02 07:45:00,
2013-07-02 02:46:00,59.0,49.2,29.90,NNW,346,4.0,4.0,70,0.00,,---,0.00,0.00,VWS V14.01,2013-07-02 07:46:00,
2013-07-02 02:50:00,58.7,49.3,29.90,North,0,4.0,5.0,71,0.00,,---,0.00,0.00,VWS V14.01,2013-07-02 07:50:00,
2013-07-02 02:51:00,58.7,49.3,29.90,North,352,3.0,4.0,71,0.00,,---,0.00,0.00,VWS V14.01,2013-07-02 07:51:00,
2013-07-02 02:55:00,58.6,49.2,29.90,NW,312,5.0,6.0,71,0.00,,---,0.00,0.00,VWS V14.01,2013-07-02 07:55:00,
2013-07-02 02:56:00,58.6,49.2,29.90,West,277,5.0,5.0,71,0.00,,---,0.00,0.00,VWS V14.01,2013-07-02 07:56:00,
2013-07-02 03:00:00,58.6,49.6,29.90,North,359,5.0,6.0,72,0.00,,---,0.00,0.00,VWS V14.01,2013-07-02 08:00:00,
2013-07-02 03:01:00,58.4,49.4,29.90,North,350,5.0,5.0,72,0.00,,---,0.00,0.00,VWS V14.01,2013-07-02 08:01:00,
2013-07-02 03:05:00,58.4,49.4,29.90,North,350,5.0,6.0,72,0.00,,---,0.00,0.00,VWS V14.01,2013-07-02 08:05:00,
2013-07-02 03:06:00,58.4,49.4,29.90,North,353,5.0,6.0,72,0.00,,---,0.00,0.00,VWS V14.01,2013-07-02 08:06:00,
2013-07-02 03:10:00,58.3,49.3,29.90,North,354,5.0,6.0,72,0.00,,---,0.00,0.00,VWS V14.01,2013-07-02 08:10:00,
2013-07-02 03:11:00,58.3,49.3,29.90,North,0,5.0,5.0,72,0.00,,---,0.00,0.00,VWS V14.01,2013-07-02 08:11:00,
2013-07-02 03:15:00,58.3,49.7,29.90,North,0,5.0,6.0,73,0.00,,---,0.00,0.00,VWS V14.01,2013-07-02 08:15:00,
2013-07-02 03:16:00,58.3,49.7,29.90,North,359,5.0,5.0,73,0.00,,---,0.00,0.00,VWS V14.01,2013-07-02 08:16:00,
2013-07-02 03:20:00,58.3,49.7,29.90,North,356,5.0,6.0,73,0.00,,---,0.00,0.00,VWS V14.01,2013-07-02 08:20:00,
2013-07-02 03:21:00,58.3,49.7,29.90,North,352,6.0,6.0,73,0.00,,---,0.00,0.00,VWS V14.01,2013-07-02 08:21:00,
2013-07-02 03:25:00,58.3,49.7,29.90,North,0,5.0,6.0,73,0.00,,---,0.00,0.00,VWS V14.01,2013-07-02 08:25:00,
2013-07-02 03:26:00,58.3,49.7,29.90,North,0,5.0,5.0,73,0.00,,---,0.00,0.00,VWS V14.01,2013-07-02 08:26:00,
2013-07-02 03:30:00,58.3,49.7,29.89,North,353,5.0,6.0,73,0.00,,---,0.00,0.00,VWS V14.01,2013-07-02 08:30:00,
2013-07-02 03:31:00,58.3,49.7,29.89,North,0,5.0,6.0,73,0.00,,---,0.00,0.00,VWS V14.01,2013-07-02 08:31:00,
2013-07-02 03:35:00,58.1,49.5,29.89,North,350,5.0,6.0,73,0.00,,---,0.00,0.00,VWS V14.01,2013-07-02 08:35:00,
2013-07-02 03:36:00,58.1,49.5,29.89,North,350,4.0,5.0,73,0.00,,---,0.00,0.00,VWS V14.01,2013-07-02 08:36:00,
2013-07-02 03:40:00,58.1,49.5,29.89,North,0,5.0,5.0,73,0.00,,---,0.00,0.00,VWS V14.01,2013-07-02 08:40:00,
2013-07-02 03:41:00,58.1,49.5,29.89,NNW,346,3.0,5.0,73,0.00,,---,0.00,0.00,VWS V14.01,2013-07-02 08:41:00,
2013-07-02 03:45:00,58.1,49.5,29.89,North,352,3.0,5.0,73,0.00,,---,0.00,0.00,VWS V14.01,2013-07-02 08:45:00,
2013-07-02 03:46:00,58.1,49.5,29.89,North,0,3.0,3.0,73,0.00,,---,0.00,0.00,VWS V14.01,2013-07-02 08:46:00,
2013-07-02 03:50:00,58.1,49.5,29.89,North,359,3.0,5.0,73,0.00,,---,0.00,0.00,VWS V14.01,2013-07-02 08:50:00,
2013-07-02 03:51:00,58.3,49.7,29.89,North,356,3.0,6.0,73,0.00,,---,0.00,0.00,VWS V14.01,2013-07-02 08:51:00,
2013-07-02 03:55:00,58.3,49.7,29.89,West,278,5.0,6.0,73,0.00,,---,0.00,0.00,VWS V14.01,2013-07-02 08:55:00,
2013-07-02 03:57:00,58.3,49.7,29.89,NW,319,3.0,5.0,73,0.00,,---,0.00,0.00,VWS V14.01,2013-07-02 08:57:00,
2013-07-02 04:00:00,58.4,49.4,29.90,NNW,347,3.0,5.0,72,0.00,,---,0.00,0.00,VWS V14.01,2013-07-02 09:00:00,
2013-07-02 04:02:00,58.6,49.6,29.90,NNW,340,5.0,5.0,72,0.00,,---,0.00,0.00,VWS V14.01,2013-07-02 09:02:00,
2013-07-02 04:05:00,58.6,49.6,29.90,North,354,3.0,5.0,72,0.00,,---,0.00,0.00,VWS V14.01,2013-07-02 09:05:00,
2013-07-02 04:07:00,58.6,49.6,29.90,North,0,3.0,4.0,72,0.00,,---,0.00,0.00,VWS V14.01,2013-07-02 09:07:00,
2013-07-02 04:10:00,58.7,49.7,29.90,North,357,3.0,4.0,72,0.00,,---,0.00,0.00,VWS V14.01,2013-07-02 09:10:00,
2013-07-02 04:12:00,58.7,49.7,29.90,WNW,298,3.0,3.0,72,0.00,,---,0.00,0.00,VWS V14.01,2013-07-02 09:12:00,
2013-07-02 04:15:00,58.6,49.6,29.90,WNW,292,3.0,5.0,72,0.00,,---,0.00,0.00,VWS V14.01,2013-07-02 09:15:00,
2013-07-02 04:17:00,58.6,49.6,29.90,West,268,3.0,3.0,72,0.00,,---,0.00,0.00,VWS V14.01,2013-07-02 09:17:00,
2013-07-02 04:20:00,58.6,49.6,29.90,WNW,288,3.0,5.0,72,0.00,,---,0.00,0.00,VWS V14.01,2013-07-02 09:20:00,
2013-07-02 04:22:00,58.6,49.6,29.90,WNW,287,3.0,6.0,72,0.00,,---,0.00,0.00,VWS V14.01,2013-07-02 09:22:00,
2013-07-02 04:25:00,58.6,49.6,29.90,WNW,285,4.0,6.0,72,0.00,,---,0.00,0.00,VWS V14.01,2013-07-02 09:25:00,
2013-07-02 04:27:00,58.6,49.6,29.90,WNW,292,6.0,6.0,72,0.00,,---,0.00,0.00,VWS V14.01,2013-07-02 09:27:00,
2013-07-02 04:30:00,58.4,49.4,29.90,West,278,3.0,6.0,72,0.00,,---,0.00,0.00,VWS V14.01,2013-07-02 09:30:00,
2013-07-02 04:32:00,58.4,49.8,29.90,WNW,284,3.0,5.0,73,0.00,,---,0.00,0.00,VWS V14.01,2013-07-02 09:32:00,
2013-07-02 04:35:00,58.3,49.7,29.90,West,281,3.0,6.0,73,0.00,,---,0.00,0.00,VWS V14.01,2013-07-02 09:35:00,
2013-07-02 04:37:00,58.3,49.7,29.90,WNW,287,3.0,6.0,73,0.00,,---,0.00,0.00,VWS V14.01,2013-07-02 09:37:00,
2013-07-02 04:40:00,58.1,49.5,29.90,WNW,287,4.0,6.0,73,0.00,,---,0.00,0.00,VWS V14.01,2013-07-02 09:40:00,
2013-07-02 04:42:00,58.1,49.5,29.90,WNW,284,5.0,6.0,73,0.00,,---,0.00,0.00,VWS V14.01,2013-07-02 09:42:00,
2013-07-02 04:45:00,58.1,49.9,29.90,North,349,3.0,6.0,74,0.00,,---,0.00,0.00,VWS V14.01,2013-07-02 09:45:00,
2013-07-02 04:47:00,58.1,49.9,29.90,NW,305,5.0,6.0,74,0.00,,---,0.00,0.00,VWS V14.01,2013-07-02 09:47:00,
2013-07-02 04:50:00,58.1,49.9,29.90,WNW,294,3.0,6.0,74,0.00,,---,0.00,0.00,VWS V14.01,2013-07-02 09:50:00,
2013-07-02 04:52:00,58.1,49.9,29.90,North,0,5.0,6.0,74,0.00,,---,0.00,0.00,VWS V14.01,2013-07-02 09:52:00,
2013-07-02 04:55:00,58.1,49.9,29.90,WNW,296,4.0,6.0,74,0.00,,---,0.00,0.00,VWS V14.01,2013-07-02 09:55:00,
2013-07-02 04:58:00,58.0,49.8,29.90,North,0,5.0,5.0,74,0.00,,---,0.00,0.00,VWS V14.01,2013-07-02 09:58:00,
2013-07-02 05:00:00,58.0,49.8,29.91,NNW,336,5.0,5.0,74,0.00,,---,0.00,0.00,VWS V14.01,2013-07-02 10:00:00,
2013-07-02 05:03:00,58.0,50.1,29.91,NW,305,4.0,6.0,75,0.00,,---,0.00,0.00,VWS V14.01,2013-07-02 10:03:00,
2013-07-02 05:05:00,58.0,50.1,29.91,North,0,5.0,6.0,75,0.00,,---,0.00,0.00,VWS V14.01,2013-07-02 10:05:00,
2013-07-02 05:08:00,58.1,49.9,29.91,WNW,294,5.0,6.0,74,0.00,,---,0.00,0.00,VWS V14.01,2013-07-02 10:08:00,
2013-07-02 05:10:00,58.1,49.9,29.91,WNW,299,3.0,6.0,74,0.00,,---,0.00,0.00,VWS V14.01,2013-07-02 10:10:00,
2013-07-02 05:13:00,58.0,49.8,29.91,NW,312,3.0,5.0,74,0.00,,---,0.00,0.00,VWS V14.01,2013-07-02 10:13:00,
2013-07-02 05:15:00,58.0,49.8,29.91,North,0,5.0,5.0,74,0.00,,---,0.00,0.00,VWS V14.01,2013-07-02 10:15:00,
2013-07-02 05:18:00,58.0,49.8,29.91,North,354,3.0,7.0,74,0.00,,---,0.00,0.00,VWS V14.01,2013-07-02 10:18:00,
2013-07-02 05:20:00,58.0,49.8,29.91,NNW,329,5.0,7.0,74,0.00,,---,0.00,0.00,VWS V14.01,2013-07-02 10:20:00,
2013-07-02 05:23:00,58.1,49.9,29.91,North,350,3.0,5.0,74,0.00,,---,0.00,0.00,VWS V14.01,2013-07-02 10:23:00,
2013-07-02 05:25:00,58.1,49.9,29.91,NNW,347,4.0,5.0,74,0.00,,---,0.00,0.00,VWS V14.01,2013-07-02 10:25:00,
2013-07-02 05:28:00,58.1,49.9,29.91,North,350,5.0,5.0,74,0.00,,---,0.00,0.00,VWS V14.01,2013-07-02 10:28:00,
2013-07-02 05:30:00,58.1,49.9,29.92,NW,306,4.0,5.0,74,0.00,,---,0.00,0.00,VWS V14.01,2013-07-02 10:30:00,
2013-07-02 05:33:00,58.1,49.9,29.92,NNW,343,3.0,6.0,74,0.00,,---,0.00,0.00,VWS V14.01,2013-07-02 10:33:00,
2013-07-02 05:35:00,58.0,49.8,29.92,North,0,4.0,6.0,74,0.00,,---,0.00,0.00,VWS V14.01,2013-07-02 10:35:00,
2013-07-02 05:38:00,58.0,49.8,29.92,WNW,302,5.0,5.0,74,0.00,,---,0.00,0.00,VWS V14.01,2013-07-02 10:38:00,
2013-07-02 05:40:00,58.0,49.8,29.92,WNW,295,3.0,5.0,74,0.00,,---,0.00,0.00,VWS V14.01,2013-07-02 10:40:00,
2013-07-02 05:43:00,58.0,49.8,29.92,WNW,292,5.0,5.0,74,0.00,,---,0.00,0.00,VWS V14.01,2013-07-02 10:43:00,
2013-07-02 05:45:00,57.8,49.9,29.92,WNW,302,6.0,6.0,75,0.00,,---,0.00,0.00,VWS V14.01,2013-07-02 10:45:00,
2013-07-02 05:48:00,57.8,49.9,29.92,WNW,302,5.0,6.0,75,0.00,,---,0.00,0.00,VWS V14.01,2013-07-02 10:48:00,
2013-07-02 05:50:00,57.8,49.9,29.92,NNW,339,5.0,6.0,75,0.00,,---,0.00,0.00,VWS V14.01,2013-07-02 10:50:00,
2013-07-02 05:53:00,57.8,49.9,29.92,NNW,346,3.0,6.0,75,0.00,,---,0.00,0.00,VWS V14.01,2013-07-02 10:53:00,
2013-07-02 05:55:00,57.8,49.9,29.92,NW,323,5.0,6.0,75,0.00,,---,0.00,0.00,VWS V14.01,2013-07-02 10:55:00,
2013-07-02 05:58:00,57.8,49.9,29.92,North,356,5.0,6.0,75,0.00,,---,0.00,0.00,VWS V14.01,2013-07-02 10:58:00,
2013-07-02 06:00:00,57.8,49.9,29.92,NW,309,7.0,7.0,75,0.00,,---,0.00,0.00,VWS V14.01,2013-07-02 11:00:00,
2013-07-02 06:03:00,57.8,49.9,29.92,NW,326,5.0,7.0,75,0.00,,---,0.00,0.00,VWS V14.01,2013-07-02 11:03:00,
2013-07-02 06:05:00,57.8,49.9,29.92,North,352,5.0,7.0,75,0.00,,---,0.00,0.00,VWS V14.01,2013-07-02 11:05:00,
2013-07-02 06:09:00,57.8,49.6,29.92,North,0,5.0,7.0,74,0.00,,---,0.00,0.00,VWS V14.01,2013-07-02 11:09:00,
2013-07-02 06:10:00,57.8,49.9,29.92,NNW,340,5.0,7.0,75,0.00,,---,0.00,0.00,VWS V14.01,2013-07-02 11:10:00,
2013-07-02 06:14:00,58.0,49.8,29.92,WNW,302,5.0,6.0,74,0.00,,---,0.00,0.00,VWS V14.01,2013-07-02 11:14:00,
2013-07-02 06:15:00,58.0,49.8,29.92,NW,304,5.0,6.0,74,0.00,,---,0.00,0.00,VWS V14.01,2013-07-02 11:15:00,
2013-07-02 06:19:00,57.8,49.6,29.92,NNW,336,5.0,6.0,74,0.00,,---,0.00,5.00,VWS V14.01,2013-07-02 11:19:00,
2013-07-02 06:20:00,57.8,49.6,29.92,North,0,6.0,6.0,74,0.00,,---,0.00,5.00,VWS V14.01,2013-07-02 11:20:00,
2013-07-02 06:24:00,57.8,49.9,29.92,North,0,5.0,7.0,75,0.00,,---,0.00,7.00,VWS V14.01,2013-07-02 11:24:00,
2013-07-02 06:25:00,57.8,49.9,29.92,NW,309,7.0,7.0,75,0.00,,---,0.00,7.00,VWS V14.01,2013-07-02 11:25:00,
2013-07-02 06:29:00,57.8,49.6,29.92,NW,311,6.0,7.0,74,0.00,,---,0.00,11.00,VWS V14.01,2013-07-02 11:29:00,
2013-07-02 06:30:00,57.8,49.6,29.92,NW,304,6.0,7.0,74,0.00,,---,0.00,14.00,VWS V14.01,2013-07-02 11:30:00,
2013-07-02 06:34:00,57.8,49.9,29.92,WNW,295,6.0,6.0,75,0.00,,---,0.00,14.00,VWS V14.01,2013-07-02 11:34:00,
2013-07-02 06:35:00,57.8,49.9,29.92,WNW,295,5.0,6.0,75,0.00,,---,0.00,19.00,VWS V14.01,2013-07-02 11:35:00,
2013-07-02 06:39:00,57.8,49.9,29.92,WNW,291,6.0,7.0,75,0.00,,---,0.00,25.00,VWS V14.01,2013-07-02 11:39:00,
2013-07-02 06:40:00,57.6,49.7,29.92,WNW,291,6.0,7.0,75,0.00,,---,0.00,25.00,VWS V14.01,2013-07-02 11:40:00,
2013-07-02 06:44:00,57.6,49.8,29.92,WNW,282,5.0,7.0,75,0.00,,---,0.00,33.00,VWS V14.01,2013-07-02 11:44:00,
2013-07-02 06:45:00,57.6,49.7,29.93,WNW,284,3.0,7.0,75,0.00,,---,0.00,33.00,VWS V14.01,2013-07-02 11:45:00,
2013-07-02 06:49:00,57.5,50.0,29.93,WNW,285,6.0,6.0,76,0.00,,---,0.00,40.00,VWS V14.01,2013-07-02 11:49:00,
2013-07-02 06:50:00,57.5,50.0,29.93,WNW,282,6.0,6.0,76,0.00,,---,0.00,40.00,VWS V14.01,2013-07-02 11:50:00,
2013-07-02 06:54:00,57.3,50.2,29.93,WNW,287,3.0,7.0,77,0.00,,---,0.00,48.00,VWS V14.01,2013-07-02 11:54:00,
2013-07-02 06:55:00,57.3,50.2,29.93,WNW,288,3.0,7.0,77,0.00,,---,0.00,53.00,VWS V14.01,2013-07-02 11:55:00,
2013-07-02 06:59:00,57.5,50.4,29.93,WNW,291,3.0,6.0,77,0.00,,---,0.00,58.00,VWS V14.01,2013-07-02 11:59:00,
2013-07-02 07:00:00,57.5,50.4,29.93,WNW,291,3.0,6.0,77,0.00,,---,0.00,58.00,VWS V14.01,2013-07-02 12:00:00,
2013-07-02 07:04:00,57.5,50.4,29.93,WNW,292,5.0,6.0,77,0.00,,---,0.00,77.00,VWS V14.01,2013-07-02 12:04:00,
2013-07-02 07:05:00,57.5,50.4,29.93,WNW,291,6.0,6.0,77,0.00,,---,0.00,77.00,VWS V14.01,2013-07-02 12:05:00,
2013-07-02 07:09:00,57.5,50.0,29.93,WNW,287,3.0,6.0,76,0.00,,---,0.00,84.00,VWS V14.01,2013-07-02 12:09:00,
2013-07-02 07:10:00,57.5,50.0,29.93,WNW,285,3.0,6.0,76,0.00,,---,0.00,86.00,VWS V14.01,2013-07-02 12:10:00,
2013-07-02 07:15:00,57.5,50.4,29.94,WNW,285,5.0,5.0,77,0.00,,---,0.00,97.00,VWS V14.01,2013-07-02 12:15:00,
2013-07-02 07:20:00,57.6,50.5,29.94,WNW,284,3.0,6.0,77,0.00,,---,0.00,107.00,VWS V14.01,2013-07-02 12:20:00,
2013-07-02 07:25:00,57.8,50.7,29.94,WNW,284,3.0,6.0,77,0.00,,---,0.00,120.00,VWS V14.01,2013-07-02 12:25:00,
2013-07-02 07:30:00,58.1,50.9,29.94,NW,326,4.0,6.0,77,0.00,,---,0.00,135.00,VWS V14.01,2013-07-02 12:30:00,
2013-07-02 07:35:00,58.6,51.1,29.94,WNW,296,4.0,7.0,76,0.00,,---,0.00,148.00,VWS V14.01,2013-07-02 12:35:00,
2013-07-02 07:40:00,58.9,51.4,29.94,NW,305,6.0,6.0,76,0.00,,---,0.00,164.00,VWS V14.01,2013-07-02 12:40:00,
2013-07-02 07:45:00,59.3,51.4,29.93,NNW,329,3.0,7.0,75,0.00,,---,0.00,181.00,VWS V14.01,2013-07-02 12:45:00,
2013-07-02 07:50:00,59.9,51.6,29.93,North,0,3.0,5.0,74,0.00,,---,0.00,194.00,VWS V14.01,2013-07-02 12:50:00,
2013-07-02 07:55:00,60.4,51.7,29.93,North,350,5.0,7.0,73,0.00,,---,0.00,208.00,VWS V14.01,2013-07-02 12:55:00,
2013-07-02 08:00:00,60.9,51.8,29.93,North,0,3.0,6.0,72,0.00,,---,0.00,222.00,VWS V14.01,2013-07-02 13:00:00,
2013-07-02 08:05:00,61.5,52.0,29.93,North,0,1.0,3.0,71,0.00,,---,0.00,238.00,VWS V14.01,2013-07-02 13:05:00,
2013-07-02 08:10:00,62.3,52.0,29.93,North,350,5.0,6.0,69,0.00,,---,0.00,246.00,VWS V14.01,2013-07-02 13:10:00,
2013-07-02 08:15:00,63.1,52.4,29.94,North,350,2.0,5.0,68,0.00,,---,0.00,262.00,VWS V14.01,2013-07-02 13:15:00,
2013-07-02 08:20:00,63.5,52.4,29.94,North,0,4.0,5.0,67,0.00,,---,0.00,278.00,VWS V14.01,2013-07-02 13:20:00,
2013-07-02 08:25:00,63.9,52.7,29.94,NNW,335,0.0,6.0,67,0.00,,---,0.00,292.00,VWS V14.01,2013-07-02 13:25:00,
2013-07-02 08:30:00,64.5,52.9,29.93,North,0,5.0,5.0,66,0.00,,---,0.00,310.00,VWS V14.01,2013-07-02 13:30:00,
2013-07-02 08:35:00,65.2,52.3,29.93,NE,40,7.0,7.0,63,0.00,,---,0.00,327.00,VWS V14.01,2013-07-02 13:35:00,
2013-07-02 08:40:00,65.6,52.2,29.93,East,86,5.0,7.0,62,0.00,,---,0.00,345.00,VWS V14.01,2013-07-02 13:40:00,
2013-07-02 08:45:00,66.0,52.6,29.93,NE,35,1.0,1.0,62,0.00,,---,0.00,357.00,VWS V14.01,2013-07-02 13:45:00,
2013-07-02 08:50:00,66.4,53.0,29.93,NE,38,1.0,6.0,62,0.00,,---,0.00,373.00,VWS V14.01,2013-07-02 13:50:00,
2013-07-02 08:51:00,66.4,53.0,29.93,NE,38,0.0,1.0,62,0.00,,---,0.00,373.00,VWS V14.01,2013-07-02 13:51:00,
2013-07-02 08:55:00,66.9,53.0,29.93,SE,143,5.0,7.0,61,0.00,,---,0.00,389.00,VWS V14.01,2013-07-02 13:55:00,
2013-07-02 08:56:00,66.9,53.0,29.93,ESE,106,6.0,6.0,61,0.00,,---,0.00,389.00,VWS V14.01,2013-07-02 13:56:00,
2013-07-02 09:00:00,67.3,53.0,29.93,NE,34,5.0,7.0,60,0.00,,---,0.00,401.00,VWS V14.01,2013-07-02 14:00:00,
2013-07-02 09:01:00,67.3,53.0,29.93,ESE,110,4.0,6.0,60,0.00,,---,0.00,401.00,VWS V14.01,2013-07-02 14:01:00,
2013-07-02 09:05:00,67.6,53.2,29.93,NE,35,5.0,7.0,60,0.00,,---,0.00,419.00,VWS V14.01,2013-07-02 14:05:00,
2013-07-02 09:06:00,67.6,53.2,29.93,NE,35,5.0,5.0,60,0.00,,---,0.00,419.00,VWS V14.01,2013-07-02 14:06:00,
2013-07-02 09:10:00,68.1,53.2,29.93,NE,55,5.0,6.0,59,0.00,,---,0.00,433.00,VWS V14.01,2013-07-02 14:10:00,
2013-07-02 09:11:00,68.3,53.4,29.93,ENE,58,5.0,7.0,59,0.00,,---,0.00,433.00,VWS V14.01,2013-07-02 14:11:00,
2013-07-02 09:15:00,68.4,53.1,29.93,East,80,5.0,7.0,58,0.00,,---,0.00,447.00,VWS V14.01,2013-07-02 14:15:00,
2013-07-02 09:16:00,68.4,53.1,29.93,East,83,3.0,5.0,58,0.00,,---,0.00,447.00,VWS V14.01,2013-07-02 14:16:00,
2013-07-02 09:20:00,68.8,53.4,29.93,NE,38,2.0,5.0,58,0.00,,---,0.00,461.00,VWS V14.01,2013-07-02 14:20:00,
2013-07-02 09:21:00,68.9,53.5,29.93,NE,40,0.0,2.0,58,0.00,,---,0.00,465.00,VWS V14.01,2013-07-02 14:21:00,
2013-07-02 09:25:00,69.4,53.5,29.93,East,79,0.0,3.0,57,0.00,,---,0.00,475.00,VWS V14.01,2013-07-02 14:25:00,
2013-07-02 09:26:00,69.6,53.2,29.93,East,83,0.0,0.0,56,0.00,,---,0.00,482.00,VWS V14.01,2013-07-02 14:26:00,
2013-07-02 09:30:00,69.9,53.5,29.93,ESE,114,0.0,0.0,56,0.00,,---,0.00,489.00,VWS V14.01,2013-07-02 14:30:00,
2013-07-02 09:31:00,70.1,53.7,29.93,ESE,106,0.0,0.0,56,0.00,,---,0.00,493.00,VWS V14.01,2013-07-02 14:31:00,
2013-07-02 09:35:00,70.3,53.4,29.93,NE,48,5.0,5.0,55,0.00,,---,0.00,507.00,VWS V14.01,2013-07-02 14:35:00,
2013-07-02 09:36:00,70.3,53.4,29.93,NE,55,2.0,5.0,55,0.00,,---,0.00,512.00,VWS V14.01,2013-07-02 14:36:00,
2013-07-02 09:40:00,70.4,53.5,29.93,NE,40,0.0,5.0,55,0.00,,---,0.00,524.00,VWS V14.01,2013-07-02 14:40:00,
2013-07-02 09:41:00,70.6,53.7,29.93,NE,40,0.0,0.0,55,0.00,,---,0.00,526.00,VWS V14.01,2013-07-02 14:41:00,
2013-07-02 09:45:00,71.3,54.3,29.93,NE,45,0.0,5.0,55,0.00,,---,0.00,532.00,VWS V14.01,2013-07-02 14:45:00,
2013-07-02 09:51:00,71.3,54.3,29.93,NE,45,0.0,5.0,55,0.00,,---,0.00,532.00,VWS V14.01,2013-07-02 14:51:00,
2013-07-02 09:55:00,72.3,54.2,29.93,ENE,61,0.0,3.0,53,0.00,,---,0.00,567.00,VWS V14.01,2013-07-02 14:55:00,
2013-07-02 09:57:00,72.3,54.2,29.93,ENE,58,1.0,1.0,53,0.00,,---,0.00,572.00,VWS V14.01,2013-07-02 14:57:00,
2013-07-02 10:00:00,72.7,53.5,29.93,ENE,69,3.0,5.0,51,0.00,,---,0.00,582.00,VWS V14.01,2013-07-02 15:00:00,
2013-07-02 10:02:00,72.7,53.5,29.93,ENE,71,1.0,3.0,51,0.00,,---,0.00,584.00,VWS V14.01,2013-07-02 15:02:00,
2013-07-02 10:05:00,73.0,53.8,29.93,ENE,68,3.0,3.0,51,0.00,,---,0.00,596.00,VWS V14.01,2013-07-02 15:05:00,
2013-07-02 10:07:00,73.2,52.9,29.93,ENE,73,4.0,5.0,49,0.00,,---,0.00,593.00,VWS V14.01,2013-07-02 15:07:00,
2013-07-02 10:10:00,73.5,53.2,29.93,ENE,75,3.0,6.0,49,0.00,,---,0.00,604.00,VWS V14.01,2013-07-02 15:10:00,
2013-07-02 10:12:00,73.5,52.6,29.93,East,92,3.0,6.0,48,0.00,,---,0.00,609.00,VWS V14.01,2013-07-02 15:12:00,
2013-07-02 10:15:00,73.9,53.0,29.93,ENE,68,3.0,6.0,48,0.00,,---,0.00,616.00,VWS V14.01,2013-07-02 15:15:00,
2013-07-02 10:17:00,74.0,52.5,29.93,ENE,73,2.0,5.0,47,0.00,,---,0.00,623.00,VWS V14.01,2013-07-02 15:17:00,
2013-07-02 10:20:00,74.2,52.7,29.93,East,89,4.0,7.0,47,0.00,,---,0.00,633.00,VWS V14.01,2013-07-02 15:20:00,
2013-07-02 10:22:00,74.2,52.7,29.93,ESE,102,5.0,6.0,47,0.00,,---,0.00,639.00,VWS V14.01,2013-07-02 15:22:00,
2013-07-02 10:25:00,74.4,52.9,29.93,East,99,6.0,7.0,47,0.00,,---,0.00,648.00,VWS V14.01,2013-07-02 15:25:00,
2013-07-02 10:27:00,74.4,52.9,29.93,East,99,2.0,6.0,47,0.00,,---,0.00,653.00,VWS V14.01,2013-07-02 15:27:00,
2013-07-02 10:30:00,74.4,52.3,29.93,ESE,104,2.0,6.0,46,0.00,,---,0.00,658.00,VWS V14.01,2013-07-02 15:30:00,
2013-07-02 10:32:00,74.6,53.1,29.93,East,90,3.0,5.0,47,0.00,,---,0.00,662.00,VWS V14.01,2013-07-02 15:32:00,
2013-07-02 10:35:00,74.9,53.3,29.93,ESE,117,3.0,5.0,47,0.00,,---,0.00,669.00,VWS V14.01,2013-07-02 15:35:00,
2013-07-02 10:37:00,75.1,52.3,29.93,ENE,69,0.0,5.0,45,0.00,,---,0.00,676.00,VWS V14.01,2013-07-02 15:37:00,
2013-07-02 10:40:00,75.3,52.5,29.93,East,88,2.0,6.0,45,0.00,,---,0.00,690.00,VWS V14.01,2013-07-02 15:40:00,
2013-07-02 10:42:00,75.6,52.8,29.93,East,88,0.0,2.0,45,0.00,,---,0.00,693.00,VWS V14.01,2013-07-02 15:42:00,
2013-07-02 10:45:00,75.8,52.4,29.93,NE,49,6.0,7.0,44,0.00,,---,0.00,697.00,VWS V14.01,2013-07-02 15:45:00,
2013-07-02 10:48:00,76.0,52.5,29.93,ENE,59,5.0,7.0,44,0.00,,---,0.00,699.00,VWS V14.01,2013-07-02 15:48:00,
2013-07-02 10:50:00,76.0,52.5,29.93,ENE,68,0.0,7.0,44,0.00,,---,0.00,709.00,VWS V14.01,2013-07-02 15:50:00,
2013-07-02 10:53:00,76.1,52.0,29.93,SSE,155,0.0,2.0,43,0.00,,---,0.00,711.00,VWS V14.01,2013-07-02 15:53:00,
2013-07-02 10:55:00,76.5,52.4,29.93,NE,48,5.0,6.0,43,0.00,,---,0.00,716.00,VWS V14.01,2013-07-02 15:55:00,
2013-07-02 10:58:00,76.7,51.9,29.93,ESE,120,1.0,6.0,42,0.00,,---,0.00,725.00,VWS V14.01,2013-07-02 15:58:00,
2013-07-02 11:00:00,76.7,52.5,29.92,South,179,0.0,6.0,43,0.00,,---,0.00,728.00,VWS V14.01,2013-07-02 16:00:00,
2013-07-02 11:03:00,77.0,52.2,29.92,ESE,113,0.0,0.0,42,0.00,,---,0.00,737.00,VWS V14.01,2013-07-02 16:03:00,
2013-07-02 11:05:00,77.4,52.5,29.92,ESE,110,2.0,3.0,42,0.00,,---,0.00,744.00,VWS V14.01,2013-07-02 16:05:00,
2013-07-02 11:08:00,77.7,52.2,29.92,NE,54,3.0,3.0,41,0.00,,---,0.00,744.00,VWS V14.01,2013-07-02 16:08:00,
2013-07-02 11:13:00,77.9,50.3,29.92,ENE,59,2.0,6.0,38,0.00,,---,0.00,757.00,VWS V14.01,2013-07-02 16:13:00,
2013-07-02 11:15:00,77.7,50.1,29.93,East,96,6.0,8.0,38,0.00,,---,0.00,762.00,VWS V14.01,2013-07-02 16:15:00,
2013-07-02 11:18:00,77.7,50.1,29.93,East,95,2.0,6.0,38,0.00,,---,0.00,769.00,VWS V14.01,2013-07-02 16:18:00,
2013-07-02 11:20:00,77.7,50.1,29.93,SE,133,8.0,8.0,38,0.00,,---,0.00,772.00,VWS V14.01,2013-07-02 16:20:00,
2013-07-02 11:23:00,77.9,49.6,29.93,ENE,59,3.0,12.0,37,0.00,,---,0.00,776.00,VWS V14.01,2013-07-02 16:23:00,
2013-07-02 11:25:00,78.1,49.0,29.93,North,349,2.0,12.0,36,0.00,,---,0.00,779.00,VWS V14.01,2013-07-02 16:25:00,
2013-07-02 11:28:00,78.5,48.6,29.93,North,350,8.0,9.0,35,0.00,,---,0.00,785.00,VWS V14.01,2013-07-02 16:28:00,
2013-07-02 11:30:00,78.5,49.3,29.93,SSE,160,5.0,9.0,36,0.00,,---,0.00,790.00,VWS V14.01,2013-07-02 16:30:00,
2013-07-02 11:33:00,78.5,49.3,29.93,ENE,59,2.0,11.0,36,0.00,,---,0.00,795.00,VWS V14.01,2013-07-02 16:33:00,
2013-07-02 11:35:00,78.6,50.2,29.93,ENE,65,8.0,11.0,37,0.00,,---,0.00,799.00,VWS V14.01,2013-07-02 16:35:00,
2013-07-02 11:38:00,78.6,49.4,29.93,NE,51,2.0,8.0,36,0.00,,---,0.00,794.00,VWS V14.01,2013-07-02 16:38:00,
2013-07-02 11:40:00,78.6,50.2,29.93,ENE,64,0.0,8.0,37,0.00,,---,0.00,808.00,VWS V14.01,2013-07-02 16:40:00,
2013-07-02 11:43:00,79.0,49.8,29.93,East,95,1.0,5.0,36,0.00,,---,0.00,818.00,VWS V14.01,2013-07-02 16:43:00,
2013-07-02 11:45:00,79.2,50.0,29.92,ENE,61,3.0,7.0,36,0.00,,---,0.00,818.00,VWS V14.01,2013-07-02 16:45:00,
2013-07-02 11:49:00,79.4,49.4,29.92,SE,130,7.0,7.0,35,0.00,,---,0.00,813.00,VWS V14.01,2013-07-02 16:49:00,
2013-07-02 11:50:00,79.6,49.6,29.92,SSE,147,10.0,12.0,35,0.00,,---,0.00,794.00,VWS V14.01,2013-07-02 16:50:00,
2013-07-02 11:54:00,79.6,49.6,29.92,SE,143,7.0,11.0,35,0.00,,---,0.00,808.00,VWS V14.01,2013-07-02 16:54:00,
2013-07-02 11:55:00,79.6,49.6,29.92,WNW,289,3.0,11.0,35,0.00,,---,0.00,808.00,VWS V14.01,2013-07-02 16:55:00,
2013-07-02 11:59:00,79.6,48.8,29.92,ENE,71,1.0,6.0,34,0.00,,---,0.00,838.00,VWS V14.01,2013-07-02 16:59:00,
2013-07-02 12:00:00,79.6,48.8,29.92,ENE,75,2.0,6.0,34,0.00,,---,0.00,822.00,VWS V14.01,2013-07-02 17:00:00,
2013-07-02 12:04:00,79.8,49.0,29.92,SE,144,6.0,8.0,34,0.00,,---,0.00,855.00,VWS V14.01,2013-07-02 17:04:00,
2013-07-02 12:05:00,79.8,49.7,29.92,West,271,7.0,9.0,35,0.00,,---,0.00,853.00,VWS V14.01,2013-07-02 17:05:00,
2013-07-02 12:09:00,79.9,48.3,29.92,ENE,64,3.0,11.0,33,0.00,,---,0.00,896.00,VWS V14.01,2013-07-02 17:09:00,
2013-07-02 12:10:00,79.9,49.0,29.92,ESE,102,7.0,11.0,34,0.00,,---,0.00,896.00,VWS V14.01,2013-07-02 17:10:00,
2013-07-02 12:14:00,79.8,49.0,29.92,South,189,11.0,13.0,34,0.00,,---,0.00,616.00,VWS V14.01,2013-07-02 17:14:00,
2013-07-02 12:15:00,79.8,49.7,29.93,East,80,8.0,13.0,35,0.00,,---,0.00,616.00,VWS V14.01,2013-07-02 17:15:00,
2013-07-02 12:19:00,79.9,49.0,29.93,East,80,1.0,8.0,34,0.00,,---,0.00,616.00,VWS V14.01,2013-07-02 17:19:00,
2013-07-02 12:20:00,79.9,48.3,29.93,ENE,64,4.0,8.0,33,0.00,,---,0.00,616.00,VWS V14.01,2013-07-02 17:20:00,
2013-07-02 12:24:00,79.9,48.3,29.93,West,270,3.0,8.0,33,0.00,,---,0.00,616.00,VWS V14.01,2013-07-02 17:24:00,
2013-07-02 12:25:00,79.9,48.3,29.93,East,88,6.0,8.0,33,0.00,,---,0.00,616.00,VWS V14.01,2013-07-02 17:25:00,
2013-07-02 12:29:00,80.7,48.1,29.93,WNW,298,7.0,10.0,32,0.00,,---,0.00,897.00,VWS V14.01,2013-07-02 17:29:00,
2013-07-02 12:30:00,80.7,47.3,29.92,South,185,10.0,10.0,31,0.00,,---,0.00,892.00,VWS V14.01,2013-07-02 17:30:00,
2013-07-02 12:34:00,81.2,49.4,29.92,ENE,62,6.0,10.0,33,0.00,,---,0.00,874.00,VWS V14.01,2013-07-02 17:34:00,
2013-07-02 12:35:00,81.4,48.7,29.92,North,0,4.0,10.0,32,0.00,,---,0.00,906.00,VWS V14.01,2013-07-02 17:35:00,
2013-07-02 12:40:00,81.4,47.9,29.92,North,359,4.0,10.0,31,0.00,,---,0.00,918.00,VWS V14.01,2013-07-02 17:40:00,
2013-07-02 12:45:00,81.6,48.1,29.91,North,0,1.0,7.0,31,0.00,,---,0.00,980.00,VWS V14.01,2013-07-02 17:45:00,
2013-07-02 12:50:00,81.6,49.7,29.91,SSE,167,8.0,11.0,33,0.00,,---,0.00,970.00,VWS V14.01,2013-07-02 17:50:00,
2013-07-02 12:55:00,82.0,48.4,29.91,ENE,61,5.0,10.0,31,0.00,,---,0.00,882.00,VWS V14.01,2013-07-02 17:55:00,
2013-07-02 13:00:00,81.8,49.9,29.91,West,265,6.0,9.0,33,0.00,,---,0.00,1005.00,VWS V14.01,2013-07-02 18:00:00,
2013-07-02 13:05:00,81.8,48.2,29.91,NE,41,11.0,16.0,31,0.00,,---,0.00,241.00,VWS V14.01,2013-07-02 18:05:00,
2013-07-02 13:10:00,81.1,48.5,29.91,ENE,62,8.0,16.0,32,0.00,,---,0.00,999.00,VWS V14.01,2013-07-02 18:10:00,
2013-07-02 13:15:00,80.5,49.6,29.91,North,353,2.0,11.0,34,0.00,,---,0.00,296.00,VWS V14.01,2013-07-02 18:15:00,
2013-07-02 13:20:00,81.8,49.1,29.91,ESE,109,14.0,14.0,32,0.00,,---,0.00,359.00,VWS V14.01,2013-07-02 18:20:00,
2013-07-02 13:25:00,82.4,48.8,29.91,ENE,72,8.0,8.0,31,0.00,,---,0.00,359.00,VWS V14.01,2013-07-02 18:25:00,
2013-07-02 13:30:00,82.2,48.6,29.90,North,353,12.0,12.0,31,0.00,,---,0.00,1013.00,VWS V14.01,2013-07-02 18:30:00,
2013-07-02 13:35:00,81.6,48.1,29.90,SSE,151,11.0,16.0,31,0.00,,---,0.00,269.00,VWS V14.01,2013-07-02 18:35:00,
2013-07-02 13:36:00,81.6,48.1,29.90,SSE,152,11.0,11.0,31,0.00,,---,0.00,269.00,VWS V14.01,2013-07-02 18:36:00,
2013-07-02 13:40:00,81.2,47.7,29.90,SSE,160,10.0,12.0,31,0.00,,---,0.00,303.00,VWS V14.01,2013-07-02 18:40:00,
2013-07-02 13:41:00,81.2,47.7,29.90,SSW,210,11.0,11.0,31,0.00,,---,0.00,303.00,VWS V14.01,2013-07-02 18:41:00,
2013-07-02 13:45:00,82.0,48.4,29.90,West,281,15.0,17.0,31,0.00,,---,0.00,362.00,VWS V14.01,2013-07-02 18:45:00,
2013-07-02 13:46:00,82.0,47.5,29.90,SSW,195,12.0,17.0,30,0.00,,---,0.00,362.00,VWS V14.01,2013-07-02 18:46:00,
2013-07-02 13:50:00,82.4,47.0,29.90,East,92,8.0,17.0,29,0.00,,---,0.00,352.00,VWS V14.01,2013-07-02 18:50:00,
2013-07-02 13:51:00,82.4,47.9,29.90,South,169,14.0,14.0,30,0.00,,---,0.00,352.00,VWS V14.01,2013-07-02 18:51:00,
2013-07-02 13:55:00,82.4,47.0,29.90,West,261,4.0,18.0,29,0.00,,---,0.00,276.00,VWS V14.01,2013-07-02 18:55:00,
2013-07-02 13:56:00,82.4,47.0,29.90,SE,131,11.0,11.0,29,0.00,,---,0.00,276.00,VWS V14.01,2013-07-02 18:56:00,
2013-07-02 14:00:00,82.4,47.0,29.89,ENE,75,12.0,14.0,29,0.00,,---,0.00,996.00,VWS V14.01,2013-07-02 19:00:00,
2013-07-02 14:01:00,82.4,47.9,29.89,North,0,7.0,12.0,30,0.00,,---,0.00,996.00,VWS V14.01,2013-07-02 19:01:00,
2013-07-02 14:05:00,82.6,47.2,29.89,SSW,209,8.0,16.0,29,0.00,,---,0.00,996.00,VWS V14.01,2013-07-02 19:05:00,
2013-07-02 14:06:00,82.6,47.2,29.89,NE,40,5.0,8.0,29,0.00,,---,0.00,253.00,VWS V14.01,2013-07-02 19:06:00,
2013-07-02 14:10:00,82.0,46.6,29.89,South,189,7.0,12.0,29,0.00,,---,0.00,1022.00,VWS V14.01,2013-07-02 19:10:00,
2013-07-02 14:11:00,82.0,46.6,29.89,South,189,7.0,7.0,29,0.00,,---,0.00,1022.00,VWS V14.01,2013-07-02 19:11:00,
2013-07-02 14:15:00,82.0,47.5,29.90,South,184,7.0,13.0,30,0.00,,---,0.00,287.00,VWS V14.01,2013-07-02 19:15:00,
2013-07-02 14:16:00,82.0,47.5,29.90,North,354,10.0,10.0,30,0.00,,---,0.00,289.00,VWS V14.01,2013-07-02 19:16:00,
2013-07-02 14:20:00,81.6,48.1,29.90,NE,42,11.0,14.0,31,0.00,,---,0.00,301.00,VWS V14.01,2013-07-02 19:20:00,
2013-07-02 14:21:00,81.6,48.1,29.90,SSW,212,11.0,13.0,31,0.00,,---,0.00,301.00,VWS V14.01,2013-07-02 19:21:00,
2013-07-02 14:25:00,81.2,46.8,29.90,NNE,23,6.0,14.0,30,0.00,,---,0.00,424.00,VWS V14.01,2013-07-02 19:25:00,
2013-07-02 14:27:00,81.2,46.8,29.90,SE,130,11.0,11.0,30,0.00,,---,0.00,424.00,VWS V14.01,2013-07-02 19:27:00,
2013-07-02 14:29:00,81.8,47.4,29.90,NNE,20,14.0,18.0,30,0.00,,---,0.00,1043.00,VWS V14.01,2013-07-02 19:29:00,
2013-07-02 14:30:00,82.0,47.5,29.89,North,0,14.0,18.0,30,0.00,,---,0.00,1043.00,VWS V14.01,2013-07-02 19:30:00,
2013-07-02 14:34:00,81.8,46.5,29.89,SE,128,15.0,20.0,29,0.00,,---,0.00,338.00,VWS V14.01,2013-07-02 19:34:00,
2013-07-02 14:35:00,81.8,46.5,29.89,SE,128,11.0,20.0,29,0.00,,---,0.00,315.00,VWS V14.01,2013-07-02 19:35:00,
2013-07-02 14:39:00,81.6,48.1,29.89,East,85,12.0,14.0,31,0.00,,---,0.00,269.00,VWS V14.01,2013-07-02 19:39:00,
2013-07-02 14:40:00,81.6,47.2,29.89,WSW,246,7.0,14.0,30,0.00,,---,0.00,280.00,VWS V14.01,2013-07-02 19:40:00,
2013-07-02 14:45:00,81.4,47.9,29.89,West,268,11.0,13.0,31,0.00,,---,0.00,273.00,VWS V14.01,2013-07-02 19:45:00,
2013-07-02 14:50:00,81.1,47.6,29.89,North,354,11.0,20.0,31,0.00,,---,0.00,373.00,VWS V14.01,2013-07-02 19:50:00,
2013-07-02 14:55:00,81.6,48.9,29.89,SSE,151,13.0,19.0,32,0.00,,---,0.00,310.00,VWS V14.01,2013-07-02 19:55:00,
2013-07-02 15:00:00,81.2,46.0,29.89,NW,326,5.0,18.0,29,0.00,,---,0.00,282.00,VWS V14.01,2013-07-02 20:00:00,
2013-07-02 15:05:00,81.2,47.7,29.89,South,185,13.0,13.0,31,0.00,,---,0.00,253.00,VWS V14.01,2013-07-02 20:05:00,
2013-07-02 15:10:00,81.1,47.6,29.89,NNW,347,7.0,15.0,31,0.00,,---,0.00,216.00,VWS V14.01,2013-07-02 20:10:00,
2013-07-02 15:15:00,81.1,48.5,29.89,North,352,7.0,11.0,32,0.00,,---,0.00,246.00,VWS V14.01,2013-07-02 20:15:00,
2013-07-02 15:20:00,81.4,48.7,29.89,NW,316,16.0,16.0,32,0.00,,---,0.00,945.00,VWS V14.01,2013-07-02 20:20:00,
2013-07-02 15:25:00,82.2,47.7,29.89,NNW,339,13.0,17.0,30,0.00,,---,0.00,897.00,VWS V14.01,2013-07-02 20:25:00,
2013-07-02 15:30:00,82.6,48.1,29.88,NNW,343,16.0,22.0,30,0.00,,---,0.00,911.00,VWS V14.01,2013-07-02 20:30:00,
2013-07-02 15:35:00,82.2,46.8,29.88,North,352,7.0,16.0,29,0.00,,---,0.00,334.00,VWS V14.01,2013-07-02 20:35:00,
2013-07-02 15:40:00,81.8,47.4,29.88,SW,230,8.0,16.0,30,0.00,,---,0.00,294.00,VWS V14.01,2013-07-02 20:40:00,
2013-07-02 15:45:00,81.2,47.7,29.88,SE,136,7.0,13.0,31,0.00,,---,0.00,253.00,VWS V14.01,2013-07-02 20:45:00,
2013-07-02 15:50:00,81.1,44.9,29.88,SW,215,15.0,19.0,28,0.00,,---,0.00,262.00,VWS V14.01,2013-07-02 20:50:00,
2013-07-02 15:55:00,82.2,46.8,29.88,North,353,14.0,15.0,29,0.00,,---,0.00,776.00,VWS V14.01,2013-07-02 20:55:00,
2013-07-02 16:00:00,82.4,46.1,29.87,North,352,10.0,10.0,28,0.00,,---,0.00,778.00,VWS V14.01,2013-07-02 21:00:00,
2013-07-02 16:05:00,82.8,46.4,29.87,SE,144,10.0,17.0,28,0.00,,---,0.00,778.00,VWS V14.01,2013-07-02 21:05:00,
2013-07-02 16:06:00,82.8,46.4,29.87,North,352,12.0,12.0,28,0.00,,---,0.00,778.00,VWS V14.01,2013-07-02 21:06:00,
2013-07-02 16:10:00,83.2,46.7,29.87,NW,322,14.0,19.0,28,0.00,,---,0.00,802.00,VWS V14.01,2013-07-02 21:10:00,
2013-07-02 16:11:00,83.2,46.7,29.87,North,0,11.0,14.0,28,0.00,,---,0.00,802.00,VWS V14.01,2013-07-02 21:11:00,
2013-07-02 16:15:00,83.0,46.6,29.86,NNW,329,4.0,14.0,28,0.00,,---,0.00,802.00,VWS V14.01,2013-07-02 21:15:00,
2013-07-02 16:16:00,83.0,46.6,29.86,WNW,296,2.0,5.0,28,0.00,,---,0.00,802.00,VWS V14.01,2013-07-02 21:16:00,
2013-07-02 16:20:00,83.2,45.8,29.86,North,0,7.0,16.0,27,0.00,,---,0.00,236.00,VWS V14.01,2013-07-02 21:20:00,
2013-07-02 16:21:00,83.0,46.6,29.86,West,267,11.0,11.0,28,0.00,,---,0.00,236.00,VWS V14.01,2013-07-02 21:21:00,
2013-07-02 16:25:00,82.6,47.2,29.86,North,352,16.0,16.0,29,0.00,,---,0.00,222.00,VWS V14.01,2013-07-02 21:25:00,
2013-07-02 16:26:00,82.6,47.2,29.86,North,359,11.0,16.0,29,0.00,,---,0.00,222.00,VWS V14.01,2013-07-02 21:26:00,
2013-07-02 16:30:00,82.4,46.1,29.86,SSW,209,12.0,16.0,28,0.00,,---,0.00,714.00,VWS V14.01,2013-07-02 21:30:00,
2013-07-02 16:31:00,82.6,47.2,29.86,SSW,203,14.0,14.0,29,0.00,,---,0.00,725.00,VWS V14.01,2013-07-02 21:31:00,
2013-07-02 16:35:00,82.8,46.4,29.86,North,349,5.0,16.0,28,0.00,,---,0.00,735.00,VWS V14.01,2013-07-02 21:35:00,
2013-07-02 16:36:00,82.8,46.4,29.86,North,359,5.0,8.0,28,0.00,,---,0.00,735.00,VWS V14.01,2013-07-02 21:36:00,
2013-07-02 16:40:00,83.2,45.8,29.86,WSW,257,2.0,8.0,27,0.00,,---,0.00,741.00,VWS V14.01,2013-07-02 21:40:00,
2013-07-02 16:41:00,83.4,46.9,29.86,South,169,16.0,20.0,28,0.00,,---,0.00,734.00,VWS V14.01,2013-07-02 21:41:00,
2013-07-02 16:45:00,83.4,46.9,29.85,North,356,11.0,20.0,28,0.00,,---,0.00,713.00,VWS V14.01,2013-07-02 21:45:00,
2013-07-02 16:46:00,83.4,46.9,29.85,North,0,10.0,14.0,28,0.00,,---,0.00,702.00,VWS V14.01,2013-07-02 21:46:00,
2013-07-02 16:50:00,83.4,46.9,29.85,South,189,12.0,15.0,28,0.00,,---,0.00,700.00,VWS V14.01,2013-07-02 21:50:00,
2013-07-02 16:52:00,83.4,46.9,29.85,WNW,287,8.0,12.0,28,0.00,,---,0.00,700.00,VWS V14.01,2013-07-02 21:52:00,
2013-07-02 16:55:00,83.4,46.9,29.85,NNW,339,12.0,12.0,28,0.00,,---,0.00,702.00,VWS V14.01,2013-07-02 21:55:00,
2013-07-02 16:57:00,83.4,46.9,29.85,ESE,114,5.0,14.0,28,0.00,,---,0.00,697.00,VWS V14.01,2013-07-02 21:57:00,
2013-07-02 17:00:00,83.4,46.0,29.85,ENE,62,13.0,18.0,27,0.00,,---,0.00,709.00,VWS V14.01,2013-07-02 22:00:00,
2013-07-02 17:02:00,83.0,46.6,29.85,North,0,7.0,13.0,28,0.00,,---,0.00,709.00,VWS V14.01,2013-07-02 22:02:00,
2013-07-02 17:05:00,82.6,46.2,29.85,North,0,9.0,13.0,28,0.00,,---,0.00,222.00,VWS V14.01,2013-07-02 22:05:00,
2013-07-02 17:07:00,82.4,47.0,29.85,SE,141,11.0,13.0,29,0.00,,---,0.00,222.00,VWS V14.01,2013-07-02 22:07:00,
2013-07-02 17:10:00,82.4,46.1,29.85,NNW,342,10.0,14.0,28,0.00,,---,0.00,215.00,VWS V14.01,2013-07-02 22:10:00,
2013-07-02 17:12:00,82.4,45.1,29.85,North,353,6.0,11.0,27,0.00,,---,0.00,208.00,VWS V14.01,2013-07-02 22:12:00,
2013-07-02 17:15:00,82.0,45.7,29.85,South,191,4.0,14.0,28,0.00,,---,0.00,187.00,VWS V14.01,2013-07-02 22:15:00,
2013-07-02 17:17:00,81.8,45.5,29.85,West,271,3.0,10.0,28,0.00,,---,0.00,160.00,VWS V14.01,2013-07-02 22:17:00,
2013-07-02 17:20:00,81.6,44.4,29.85,SSW,208,8.0,12.0,27,0.00,,---,0.00,179.00,VWS V14.01,2013-07-02 22:20:00,
2013-07-02 17:22:00,81.6,44.4,29.85,SE,137,7.0,13.0,27,0.00,,---,0.00,188.00,VWS V14.01,2013-07-02 22:22:00,
2013-07-02 17:25:00,81.4,45.2,29.85,West,281,8.0,14.0,28,0.00,,---,0.00,197.00,VWS V14.01,2013-07-02 22:25:00,
2013-07-02 17:27:00,81.6,45.4,29.85,NNW,346,10.0,13.0,28,0.00,,---,0.00,227.00,VWS V14.01,2013-07-02 22:27:00,
2013-07-02 17:30:00,81.6,45.4,29.84,SSW,203,14.0,17.0,28,0.00,,---,0.00,552.00,VWS V14.01,2013-07-02 22:30:00,
2013-07-02 17:32:00,81.6,45.4,29.84,NNW,347,11.0,14.0,28,0.00,,---,0.00,545.00,VWS V14.01,2013-07-02 22:32:00,
2013-07-02 17:35:00,81.2,46.0,29.84,East,97,7.0,14.0,29,0.00,,---,0.00,134.00,VWS V14.01,2013-07-02 22:35:00,
2013-07-02 17:37:00,81.1,44.9,29.84,North,0,10.0,10.0,28,0.00,,---,0.00,139.00,VWS V14.01,2013-07-02 22:37:00,
2013-07-02 17:40:00,81.1,46.8,29.84,ENE,62,6.0,11.0,30,0.00,,---,0.00,493.00,VWS V14.01,2013-07-02 22:40:00,
2013-07-02 17:42:00,81.1,45.9,29.84,WSW,258,6.0,7.0,29,0.00,,---,0.00,505.00,VWS V14.01,2013-07-02 22:42:00,
2013-07-02 17:45:00,81.6,46.3,29.84,NW,306,7.0,9.0,29,0.00,,---,0.00,505.00,VWS V14.01,2013-07-02 22:45:00,
2013-07-02 17:48:00,81.8,45.5,29.84,ENE,75,5.0,7.0,28,0.00,,---,0.00,505.00,VWS V14.01,2013-07-02 22:48:00,
2013-07-02 17:50:00,82.0,45.7,29.84,North,353,6.0,10.0,28,0.00,,---,0.00,482.00,VWS V14.01,2013-07-02 22:50:00,
2013-07-02 17:53:00,82.0,45.7,29.84,North,0,14.0,14.0,28,0.00,,---,0.00,482.00,VWS V14.01,2013-07-02 22:53:00,
2013-07-02 17:55:00,81.6,44.4,29.84,WNW,296,6.0,14.0,27,0.00,,---,0.00,151.00,VWS V14.01,2013-07-02 22:55:00,
2013-07-02 17:58:00,81.6,44.4,29.84,NNW,332,7.0,11.0,27,0.00,,---,0.00,443.00,VWS V14.01,2013-07-02 22:58:00,
2013-07-02 18:00:00,81.6,44.4,29.84,North,0,9.0,12.0,27,0.00,,---,0.00,450.00,VWS V14.01,2013-07-02 23:00:00,
2013-07-02 18:03:00,81.8,45.5,29.84,SE,130,10.0,12.0,28,0.00,,---,0.00,406.00,VWS V14.01,2013-07-02 23:03:00,
2013-07-02 18:05:00,82.0,45.7,29.84,East,83,7.0,12.0,28,0.00,,---,0.00,452.00,VWS V14.01,2013-07-02 23:05:00,
2013-07-02 18:08:00,82.0,45.7,29.84,NW,311,8.0,10.0,28,0.00,,---,0.00,435.00,VWS V14.01,2013-07-02 23:08:00,
2013-07-02 18:10:00,82.2,45.9,29.84,ENE,71,14.0,15.0,28,0.00,,---,0.00,428.00,VWS V14.01,2013-07-02 23:10:00,
2013-07-02 18:13:00,82.0,45.7,29.84,NE,45,9.0,16.0,28,0.00,,---,0.00,169.00,VWS V14.01,2013-07-02 23:13:00,
2013-07-02 18:15:00,81.8,45.5,29.84,East,83,5.0,16.0,28,0.00,,---,0.00,139.00,VWS V14.01,2013-07-02 23:15:00,
2013-07-02 18:18:00,81.6,44.4,29.84,ESE,103,8.0,8.0,27,0.00,,---,0.00,139.00,VWS V14.01,2013-07-02 23:18:00,
2013-07-02 18:20:00,81.6,44.4,29.84,ENE,58,9.0,10.0,27,0.00,,---,0.00,141.00,VWS V14.01,2013-07-02 23:20:00,
2013-07-02 18:23:00,81.2,45.0,29.84,NNW,346,6.0,10.0,28,0.00,,---,0.00,357.00,VWS V14.01,2013-07-02 23:23:00,
2013-07-02 18:25:00,81.4,46.1,29.84,NNW,333,11.0,12.0,29,0.00,,---,0.00,348.00,VWS V14.01,2013-07-02 23:25:00,
2013-07-02 18:28:00,81.6,46.3,29.84,SE,134,6.0,12.0,29,0.00,,---,0.00,338.00,VWS V14.01,2013-07-02 23:28:00,
2013-07-02 18:29:00,81.6,45.4,29.84,WSW,241,6.0,12.0,28,0.00,,---,0.00,338.00,VWS V14.01,2013-07-02 23:29:00,
2013-07-02 18:30:00,81.6,44.4,29.84,SW,226,3.0,12.0,27,0.00,,---,0.00,334.00,VWS V14.01,2013-07-02 23:30:00,
2013-07-02 18:34:00,81.6,44.4,29.84,NNW,328,10.0,11.0,27,0.00,,---,0.00,327.00,VWS V14.01,2013-07-02 23:34:00,
2013-07-02 18:35:00,81.6,45.4,29.84,NE,54,7.0,11.0,28,0.00,,---,0.00,318.00,VWS V14.01,2013-07-02 23:35:00,
2013-07-02 18:39:00,81.8,45.5,29.84,ESE,106,11.0,12.0,28,0.00,,---,0.00,308.00,VWS V14.01,2013-07-02 23:39:00,
2013-07-02 18:40:00,81.6,45.4,29.84,ESE,117,6.0,13.0,28,0.00,,---,0.00,315.00,VWS V14.01,2013-07-02 23:40:00,
2013-07-02 18:44:00,81.6,44.4,29.84,ENE,75,7.0,11.0,27,0.00,,---,0.00,304.00,VWS V14.01,2013-07-02 23:44:00,
2013-07-02 18:45:00,81.6,44.4,29.84,WNW,289,7.0,11.0,27,0.00,,---,0.00,301.00,VWS V14.01,2013-07-02 23:45:00,
2013-07-02 18:50:00,81.8,44.6,29.84,ESE,109,7.0,12.0,27,0.00,,---,0.00,290.00,VWS V14.01,2013-07-02 23:50:00,
2013-07-02 18:55:00,81.8,44.6,29.84,ESE,107,7.0,10.0,27,0.00,,---,0.00,276.00,VWS V14.01,2013-07-02 23:55:00,
2013-07-02 19:00:00,81.6,44.4,29.84,NNW,328,9.0,11.0,27,0.00,,---,0.00,260.00,VWS V14.01,2013-07-03 00:00:00,
2013-07-02 19:03:00,81.4,44.2,29.84,East,82,7.0,12.0,27,0.00,,---,0.00,248.00,VWS V14.01,2013-07-03 00:03:00,
2013-07-02 19:05:00,81.2,44.1,29.84,NNW,347,11.0,13.0,27,0.00,,---,0.00,236.00,VWS V14.01,2013-07-03 00:05:00,
2013-07-02 19:08:00,81.1,44.0,29.84,NNW,335,9.0,11.0,27,0.00,,---,0.00,227.00,VWS V14.01,2013-07-03 00:08:00,
2013-07-02 19:13:00,80.9,42.8,29.84,WSW,257,6.0,14.0,26,0.00,,---,0.00,211.00,VWS V14.01,2013-07-03 00:13:00,
2013-07-02 19:15:00,80.7,41.7,29.84,North,357,12.0,14.0,25,0.00,,---,0.00,206.00,VWS V14.01,2013-07-03 00:15:00,
2013-07-02 19:18:00,80.7,41.7,29.84,North,349,10.0,13.0,25,0.00,,---,0.00,197.00,VWS V14.01,2013-07-03 00:18:00,
2013-07-02 19:20:00,80.7,41.7,29.84,NNW,337,2.0,13.0,25,0.00,,---,0.00,195.00,VWS V14.01,2013-07-03 00:20:00,
2013-07-02 19:24:00,80.7,42.7,29.84,SE,130,5.0,9.0,26,0.00,,---,0.00,181.00,VWS V14.01,2013-07-03 00:24:00,
2013-07-02 19:25:00,80.7,41.7,29.84,WNW,295,6.0,9.0,25,0.00,,---,0.00,176.00,VWS V14.01,2013-07-03 00:25:00,
2013-07-02 19:26:00,80.7,41.7,29.84,SW,227,6.0,7.0,25,0.00,,---,0.00,176.00,VWS V14.01,2013-07-03 00:26:00,
2013-07-02 19:28:00,80.7,41.7,29.84,WNW,295,10.0,11.0,25,0.00,,---,0.00,169.00,VWS V14.01,2013-07-03 00:28:00,
2013-07-02 19:30:00,80.7,42.7,29.84,East,97,7.0,11.0,26,0.00,,---,0.00,165.00,VWS V14.01,2013-07-03 00:30:00,
2013-07-02 19:33:00,80.7,42.7,29.84,East,85,5.0,8.0,26,0.00,,---,0.00,158.00,VWS V14.01,2013-07-03 00:33:00,
2013-07-02 19:38:00,80.5,42.5,29.84,East,92,5.0,9.0,26,0.00,,---,0.00,144.00,VWS V14.01,2013-07-03 00:38:00,
2013-07-02 19:40:00,80.3,44.3,29.84,East,99,10.0,11.0,28,0.00,,---,0.00,146.00,VWS V14.01,2013-07-03 00:40:00,
2013-07-02 19:43:00,80.3,44.3,29.84,SSE,167,4.0,10.0,28,0.00,,---,0.00,141.00,VWS V14.01,2013-07-03 00:43:00,
2013-07-02 19:45:00,80.1,44.1,29.84,NW,315,3.0,10.0,28,0.00,,---,0.00,134.00,VWS V14.01,2013-07-03 00:45:00,
2013-07-02 19:48:00,79.9,43.9,29.84,North,357,5.0,7.0,28,0.00,,---,0.00,125.00,VWS V14.01,2013-07-03 00:48:00,
2013-07-02 19:50:00,79.8,43.8,29.84,NNW,337,4.0,7.0,28,0.00,,---,0.00,120.00,VWS V14.01,2013-07-03 00:50:00,
2013-07-02 19:54:00,79.6,44.6,29.84,North,354,3.0,7.0,29,0.00,,---,0.00,113.00,VWS V14.01,2013-07-03 00:54:00,
2013-07-02 19:55:00,79.4,43.5,29.84,East,99,5.0,8.0,28,0.00,,---,0.00,90.00,VWS V14.01,2013-07-03 00:55:00,
2013-07-02 19:59:00,79.2,44.2,29.84,West,263,6.0,6.0,29,0.00,,---,0.00,67.00,VWS V14.01,2013-07-03 00:59:00,
2013-07-02 20:00:00,79.0,44.1,29.84,East,86,3.0,7.0,29,0.00,,---,0.00,65.00,VWS V14.01,2013-07-03 01:00:00,
2013-07-02 20:03:00,78.8,43.9,29.84,East,90,4.0,7.0,29,0.00,,---,0.00,62.00,VWS V14.01,2013-07-03 01:03:00,
2013-07-02 20:05:00,78.6,43.7,29.84,SSW,193,5.0,7.0,29,0.00,,---,0.00,60.00,VWS V14.01,2013-07-03 01:05:00,
2013-07-02 20:08:00,78.6,43.7,29.84,North,350,3.0,6.0,29,0.00,,---,0.00,48.00,VWS V14.01,2013-07-03 01:08:00,
2013-07-02 20:10:00,78.5,43.6,29.84,North,353,2.0,6.0,29,0.00,,---,0.00,44.00,VWS V14.01,2013-07-03 01:10:00,
2013-07-02 20:11:00,78.5,43.6,29.84,East,89,3.0,4.0,29,0.00,,---,0.00,44.00,VWS V14.01,2013-07-03 01:11:00,
2013-07-02 20:15:00,78.3,44.3,29.85,East,86,5.0,5.0,30,0.00,,---,0.00,44.00,VWS V14.01,2013-07-03 01:15:00,
2013-07-02 20:16:00,78.1,44.2,29.85,NNW,346,3.0,5.0,30,0.00,,---,0.00,42.00,VWS V14.01,2013-07-03 01:16:00,
2013-07-02 20:20:00,77.9,44.9,29.85,SW,236,1.0,5.0,31,0.00,,---,0.00,40.00,VWS V14.01,2013-07-03 01:20:00,
2013-07-02 20:21:00,77.9,44.9,29.85,North,0,3.0,3.0,31,0.00,,---,0.00,40.00,VWS V14.01,2013-07-03 01:21:00,
2013-07-02 20:25:00,77.6,44.6,29.85,East,85,3.0,5.0,31,0.00,,---,0.00,33.00,VWS V14.01,2013-07-03 01:25:00,
2013-07-02 20:26:00,77.6,44.6,29.85,East,83,3.0,3.0,31,0.00,,---,0.00,30.00,VWS V14.01,2013-07-03 01:26:00,
2013-07-02 20:30:00,77.2,45.1,29.84,East,85,2.0,3.0,32,0.00,,---,0.00,26.00,VWS V14.01,2013-07-03 01:30:00,
2013-07-02 20:31:00,77.2,45.1,29.84,East,88,1.0,3.0,32,0.00,,---,0.00,26.00,VWS V14.01,2013-07-03 01:31:00,
2013-07-02 20:35:00,76.8,45.5,29.84,East,86,3.0,3.0,33,0.00,,---,0.00,23.00,VWS V14.01,2013-07-03 01:35:00,
2013-07-02 20:36:00,76.7,45.5,29.84,East,83,2.0,3.0,33,0.00,,---,0.00,23.00,VWS V14.01,2013-07-03 01:36:00,
2013-07-02 20:40:00,76.5,46.1,29.84,East,86,2.0,3.0,34,0.00,,---,0.00,18.00,VWS V14.01,2013-07-03 01:40:00,
2013-07-02 20:42:00,76.3,45.9,29.84,SE,124,3.0,5.0,34,0.00,,---,0.00,18.00,VWS V14.01,2013-07-03 01:42:00,
2013-07-02 20:45:00,76.1,45.7,29.85,South,184,3.0,5.0,34,0.00,,---,0.00,14.00,VWS V14.01,2013-07-03 01:45:00,
2013-07-02 20:47:00,76.1,45.7,29.85,South,184,3.0,3.0,34,0.00,,---,0.00,14.00,VWS V14.01,2013-07-03 01:47:00,
2013-07-02 20:50:00,75.8,45.5,29.85,SSE,168,3.0,5.0,34,0.00,,---,0.00,12.00,VWS V14.01,2013-07-03 01:50:00,
2013-07-02 20:55:00,75.4,45.1,29.85,ESE,113,3.0,5.0,34,0.00,,---,0.00,5.00,VWS V14.01,2013-07-03 01:55:00,
2013-07-02 20:56:00,75.4,45.1,29.85,SSW,195,3.0,4.0,34,0.00,,---,0.00,5.00,VWS V14.01,2013-07-03 01:56:00,
2013-07-02 21:00:00,75.1,44.8,29.84,East,89,3.0,6.0,34,0.00,,---,0.00,0.00,VWS V14.01,2013-07-03 02:00:00,
2013-07-02 21:01:00,75.1,44.8,29.84,NNW,332,3.0,5.0,34,0.00,,---,0.00,0.00,VWS V14.01,2013-07-03 02:01:00,
2013-07-02 21:05:00,74.9,44.7,29.84,NNW,344,3.0,5.0,34,0.00,,---,0.00,0.00,VWS V14.01,2013-07-03 02:05:00,
2013-07-02 21:06:00,74.9,45.4,29.84,ESE,123,5.0,5.0,35,0.00,,---,0.00,0.00,VWS V14.01,2013-07-03 02:06:00,
2013-07-02 21:10:00,74.6,45.2,29.84,East,88,5.0,6.0,35,0.00,,---,0.00,0.00,VWS V14.01,2013-07-03 02:10:00,
2013-07-02 21:11:00,74.6,45.2,29.84,NNW,346,5.0,6.0,35,0.00,,---,0.00,0.00,VWS V14.01,2013-07-03 02:11:00,
2013-07-02 21:16:00,74.4,44.2,29.83,West,270,4.0,5.0,34,0.00,,---,0.00,0.00,VWS V14.01,2013-07-03 02:16:00,
2013-07-02 21:20:00,74.4,44.2,29.83,SSE,157,3.0,5.0,34,0.00,,---,0.00,0.00,VWS V14.01,2013-07-03 02:20:00,
2013-07-02 21:22:00,74.4,44.2,29.83,ESE,102,3.0,3.0,34,0.00,,---,0.00,0.00,VWS V14.01,2013-07-03 02:22:00,
2013-07-02 21:25:00,74.2,44.8,29.83,ESE,103,3.0,5.0,35,0.00,,---,0.00,0.00,VWS V14.01,2013-07-03 02:25:00,
2013-07-02 21:27:00,74.0,45.4,29.83,ESE,102,3.0,3.0,36,0.00,,---,0.00,0.00,VWS V14.01,2013-07-03 02:27:00,
2013-07-02 21:30:00,73.7,45.8,29.84,East,95,2.0,4.0,37,0.00,,---,0.00,0.00,VWS V14.01,2013-07-03 02:30:00,
2013-07-02 21:32:00,73.5,44.9,29.84,East,93,2.0,3.0,36,0.00,,---,0.00,0.00,VWS V14.01,2013-07-03 02:32:00,
2013-07-02 21:35:00,73.3,44.8,29.84,East,97,2.0,5.0,36,0.00,,---,0.00,0.00,VWS V14.01,2013-07-03 02:35:00,
2013-07-02 21:38:00,73.3,44.8,29.84,East,96,2.0,5.0,36,0.00,,---,0.00,0.00,VWS V14.01,2013-07-03 02:38:00,
2013-07-02 21:40:00,73.3,45.5,29.84,East,89,2.0,5.0,37,0.00,,---,0.00,0.00,VWS V14.01,2013-07-03 02:40:00,
2013-07-02 21:43:00,73.0,45.9,29.84,East,90,3.0,5.0,38,0.00,,---,0.00,0.00,VWS V14.01,2013-07-03 02:43:00,
2013-07-02 21:45:00,72.7,45.7,29.84,East,92,2.0,5.0,38,0.00,,---,0.00,0.00,VWS V14.01,2013-07-03 02:45:00,
2013-07-02 21:47:00,72.5,45.5,29.84,East,99,3.0,3.0,38,0.00,,---,0.00,0.00,VWS V14.01,2013-07-03 02:47:00,
2013-07-02 21:50:00,72.1,45.1,29.84,East,90,3.0,5.0,38,0.00,,---,0.00,0.00,VWS V14.01,2013-07-03 02:50:00,
2013-07-02 21:52:00,72.1,45.1,29.84,East,89,5.0,5.0,38,0.00,,---,0.00,0.00,VWS V14.01,2013-07-03 02:52:00,
2013-07-02 21:55:00,72.1,45.1,29.84,East,89,3.0,5.0,38,0.00,,---,0.00,0.00,VWS V14.01,2013-07-03 02:55:00,
2013-07-02 21:57:00,72.1,45.1,29.84,East,92,3.0,5.0,38,0.00,,---,0.00,0.00,VWS V14.01,2013-07-03 02:57:00,
2013-07-02 22:00:00,72.0,45.0,29.84,East,93,5.0,6.0,38,0.00,,---,0.00,0.00,VWS V14.01,2013-07-03 03:00:00,
2013-07-02 22:02:00,72.0,45.0,29.84,East,89,2.0,5.0,38,0.00,,---,0.00,0.00,VWS V14.01,2013-07-03 03:02:00,
2013-07-02 22:05:00,71.8,46.2,29.84,East,90,2.0,5.0,40,0.00,,---,0.00,0.00,VWS V14.01,2013-07-03 03:05:00,
2013-07-02 22:08:00,71.6,46.7,29.84,East,93,3.0,3.0,41,0.00,,---,0.00,0.00,VWS V14.01,2013-07-03 03:08:00,
2013-07-02 22:10:00,71.6,46.7,29.84,NNW,329,4.0,4.0,41,0.00,,---,0.00,0.00,VWS V14.01,2013-07-03 03:10:00,
2013-07-02 22:13:00,71.6,46.7,29.84,ESE,102,4.0,4.0,41,0.00,,---,0.00,0.00,VWS V14.01,2013-07-03 03:13:00,
2013-07-02 22:15:00,71.6,46.0,29.84,ESE,116,4.0,5.0,40,0.00,,---,0.00,0.00,VWS V14.01,2013-07-03 03:15:00,
2013-07-02 22:19:00,71.5,45.3,29.84,ESE,102,3.0,5.0,39,0.00,,---,0.00,0.00,VWS V14.01,2013-07-03 03:19:00,
2013-07-02 22:20:00,71.5,45.3,29.84,East,96,5.0,5.0,39,0.00,,---,0.00,0.00,VWS V14.01,2013-07-03 03:20:00,
2013-07-02 22:25:00,71.3,45.1,29.84,ESE,114,5.0,6.0,39,0.00,,---,0.00,0.00,VWS V14.01,2013-07-03 03:25:00,
2013-07-02 22:30:00,71.3,46.4,29.84,SSW,193,4.0,6.0,41,0.00,,---,0.00,0.00,VWS V14.01,2013-07-03 03:30:00,
2013-07-02 22:35:00,71.1,45.6,29.84,SE,136,5.0,6.0,40,0.00,,---,0.00,0.00,VWS V14.01,2013-07-03 03:35:00,
2013-07-02 22:40:00,70.9,45.4,29.84,ESE,110,6.0,7.0,40,0.00,,---,0.00,0.00,VWS V14.01,2013-07-03 03:40:00,
2013-07-02 22:45:00,70.6,45.8,29.84,ESE,120,7.0,8.0,41,0.00,,---,0.00,0.00,VWS V14.01,2013-07-03 03:45:00,
2013-07-02 22:50:00,70.1,46.0,29.84,ESE,123,6.0,8.0,42,0.00,,---,0.00,0.00,VWS V14.01,2013-07-03 03:50:00,
2013-07-02 22:55:00,69.9,46.4,29.84,SE,124,7.0,7.0,43,0.00,,---,0.00,0.00,VWS V14.01,2013-07-03 03:55:00,
2013-07-02 23:00:00,69.9,46.4,29.85,SSW,213,5.0,7.0,43,0.00,,---,0.00,0.00,VWS V14.01,2013-07-03 04:00:00,
2013-07-02 23:01:00,69.9,46.4,29.85,SE,133,6.0,6.0,43,0.00,,---,0.00,0.00,VWS V14.01,2013-07-03 04:01:00,
2013-07-02 23:02:00,69.8,46.3,29.85,SE,128,5.0,6.0,43,0.00,,---,0.00,0.00,VWS V14.01,2013-07-03 04:02:00,
2013-07-02 23:03:00,69.8,46.3,29.85,SE,141,7.0,7.0,43,0.00,,---,0.00,0.00,VWS V14.01,2013-07-03 04:03:00,
2013-07-02 23:04:00,69.8,46.3,29.85,SE,141,6.0,7.0,43,0.00,,---,0.00,0.00,VWS V14.01,2013-07-03 04:04:00,
2013-07-02 23:05:00,69.8,46.3,29.85,South,182,6.0,7.0,43,0.00,,---,0.00,0.00,VWS V14.01,2013-07-03 04:05:00,
2013-07-02 23:06:00,69.8,46.3,29.85,South,188,6.0,6.0,43,0.00,,---,0.00,0.00,VWS V14.01,2013-07-03 04:06:00,
2013-07-02 23:09:00,69.6,46.8,29.85,SSW,212,7.0,7.0,44,0.00,,---,0.00,0.00,VWS V14.01,2013-07-03 04:09:00,
2013-07-02 23:10:00,69.6,46.8,29.85,WNW,292,7.0,8.0,44,0.00,,---,0.00,0.00,VWS V14.01,2013-07-03 04:10:00,
2013-07-02 23:14:00,69.4,46.6,29.85,SW,216,7.0,8.0,44,0.00,,---,0.00,0.00,VWS V14.01,2013-07-03 04:14:00,
2013-07-02 23:15:00,69.4,46.6,29.84,SE,133,7.0,8.0,44,0.00,,---,0.00,0.00,VWS V14.01,2013-07-03 04:15:00,
2013-07-02 23:19:00,69.4,47.2,29.84,NNW,347,3.0,8.0,45,0.00,,---,0.00,0.00,VWS V14.01,2013-07-03 04:19:00,
2013-07-02 23:20:00,69.4,47.2,29.84,WNW,284,4.0,8.0,45,0.00,,---,0.00,0.00,VWS V14.01,2013-07-03 04:20:00,
2013-07-02 23:24:00,69.6,46.8,29.84,SE,143,5.0,6.0,44,0.00,,---,0.00,0.00,VWS V14.01,2013-07-03 04:24:00,
2013-07-02 23:25:00,69.6,46.8,29.84,WSW,258,6.0,8.0,44,0.00,,---,0.00,0.00,VWS V14.01,2013-07-03 04:25:00,
2013-07-02 23:29:00,69.8,46.9,29.84,WNW,288,7.0,8.0,44,0.00,,---,0.00,0.00,VWS V14.01,2013-07-03 04:29:00,
2013-07-02 23:30:00,69.8,46.9,29.84,SSE,154,7.0,8.0,44,0.00,,---,0.00,0.00,VWS V14.01,2013-07-03 04:30:00,
2013-07-02 23:31:00,69.8,46.3,29.84,WSW,256,10.0,10.0,43,0.00,,---,0.00,0.00,VWS V14.01,2013-07-03 04:31:00,
2013-07-02 23:32:00,69.9,46.4,29.84,NW,315,8.0,10.0,43,0.00,,---,0.00,0.00,VWS V14.01,2013-07-03 04:32:00,
2013-07-02 23:35:00,70.1,46.6,29.84,SE,131,7.0,10.0,43,0.00,,---,0.00,0.00,VWS V14.01,2013-07-03 04:35:00,
2013-07-02 23:37:00,70.1,46.6,29.84,SE,137,8.0,8.0,43,0.00,,---,0.00,0.00,VWS V14.01,2013-07-03 04:37:00,
2013-07-02 23:40:00,70.3,46.8,29.84,SE,131,7.0,8.0,43,0.00,,---,0.00,0.00,VWS V14.01,2013-07-03 04:40:00,
2013-07-02 23:42:00,70.3,46.8,29.84,WSW,251,9.0,9.0,43,0.00,,---,0.00,0.00,VWS V14.01,2013-07-03 04:42:00,
2013-07-02 23:45:00,70.3,47.4,29.84,SE,141,3.0,10.0,44,0.00,,---,0.00,0.00,VWS V14.01,2013-07-03 04:45:00,
2013-07-02 23:47:00,70.3,47.4,29.84,SSE,157,4.0,6.0,44,0.00,,---,0.00,0.00,VWS V14.01,2013-07-03 04:47:00,
2013-07-02 23:50:00,70.1,47.8,29.84,SSW,200,2.0,7.0,45,0.00,,---,0.00,0.00,VWS V14.01,2013-07-03 04:50:00,
2013-07-02 23:52:00,70.1,47.8,29.84,South,191,2.0,5.0,45,0.00,,---,0.00,0.00,VWS V14.01,2013-07-03 04:52:00,
2013-07-02 23:53:00,70.1,47.8,29.84,West,268,3.0,5.0,45,0.00,,---,0.00,0.00,VWS V14.01,2013-07-03 04:53:00,
2013-07-02 23:55:00,69.9,47.6,29.84,West,267,3.0,5.0,45,0.00,,---,0.00,0.00,VWS V14.01,2013-07-03 04:55:00,
2013-07-02 23:58:00,69.9,47.6,29.84,SE,144,6.0,6.0,45,0.00,,---,0.00,0.00,VWS V14.01,2013-07-03 04:58:00,